Time,TemperatureF,DewpointF,PressureIn,WindDirection,WindDirectionDegrees,WindSpeedMPH,WindSpeedGustMPH,Humidity,HourlyPrecipIn,Conditions,Clouds,dailyrainin,SoftwareType,DateUTC
2013-08-05 00:01:00,71.4,71.4,30.01,ENE,61,0.0,2.7,100,0.00,,,0.00,VWS V13.01,2013-08-05 05:01:00,
2013-08-05 00:06:00,71.2,71.2,30.01,NE,46,2.2,2.7,100,0.00,,,0.00,VWS V13.01,2013-08-05 05:06:00,
2013-08-05 00:10:00,71.2,71.2,30.01,ENE,62,0.0,0.0,100,0.00,,,0.00,VWS V13.01,2013-08-05 05:10:00,
2013-08-05 00:15:00,71.2,71.2,30.01,NE,41,2.2,3.1,100,0.00,,,0.00,VWS V13.01,2013-08-05 05:15:00,
2013-08-05 00:21:00,71.2,71.2,30.01,NE,35,2.7,3.1,100,0.00,,,0.00,VWS V13.01,2013-08-05 05:21:00,
2013-08-05 00:26:00,71.2,71.2,30.01,NNE,20,2.2,2.7,100,0.00,,,0.00,VWS V13.01,2013-08-05 05:26:00,
2013-08-05 00:31:00,71.2,71.2,30.01,NNE,20,3.1,3.6,100,0.00,,,0.00,VWS V13.01,2013-08-05 05:31:00,
2013-08-05 00:36:00,71.4,71.4,30.01,NNE,18,0.0,0.0,100,0.00,,,0.00,VWS V13.01,2013-08-05 05:36:00,
2013-08-05 00:41:00,71.4,71.4,30.01,NNE,22,0.0,0.0,100,0.00,,,0.00,VWS V13.01,2013-08-05 05:41:00,
2013-08-05 00:46:00,71.4,71.4,30.01,North,7,0.0,0.0,100,0.00,,,0.00,VWS V13.01,2013-08-05 05:46:00,
2013-08-05 00:50:00,71.4,71.4,30.01,NNE,15,0.0,0.0,100,0.00,,,0.00,VWS V13.01,2013-08-05 05:50:00,
2013-08-05 00:56:00,71.4,71.4,30.01,NNE,15,0.0,0.0,100,0.00,,,0.00,VWS V13.01,2013-08-05 05:56:00,
2013-08-05 01:01:00,71.4,71.4,30.01,NNE,15,0.0,0.0,100,0.00,,,0.00,VWS V13.01,2013-08-05 06:01:00,
2013-08-05 01:05:00,71.2,71.2,30.01,NNE,12,2.7,2.7,100,0.00,,,0.00,VWS V13.01,2013-08-05 06:05:00,
2013-08-05 01:11:00,71.4,71.4,30.01,North,10,0.0,0.0,100,0.00,,,0.00,VWS V13.01,2013-08-05 06:11:00,
2013-08-05 01:16:00,71.2,71.2,30.01,North,10,0.0,0.0,100,0.00,,,0.00,VWS V13.01,2013-08-05 06:16:00,
2013-08-05 01:20:00,71.2,71.2,30.01,North,2,0.0,0.0,100,0.00,,,0.00,VWS V13.01,2013-08-05 06:20:00,
2013-08-05 01:26:00,71.4,71.4,30.01,NNE,31,2.7,2.7,100,0.00,,,0.00,VWS V13.01,2013-08-05 06:26:00,
2013-08-05 01:30:00,71.2,71.2,30.01,NNE,24,0.0,0.0,100,0.00,,,0.00,VWS V13.01,2013-08-05 06:30:00,
2013-08-05 01:36:00,71.2,71.2,30.01,NNE,30,0.0,0.0,100,0.00,,,0.00,VWS V13.01,2013-08-05 06:36:00,
2013-08-05 01:40:00,71.2,71.2,30.01,NNE,30,0.0,0.0,100,0.00,,,0.00,VWS V13.01,2013-08-05 06:40:00,
2013-08-05 01:45:00,71.2,71.2,30.01,NNE,30,0.0,0.0,100,0.00,,,0.00,VWS V13.01,2013-08-05 06:45:00,
2013-08-05 01:50:00,71.2,71.2,30.01,North,11,0.0,0.0,100,0.00,,,0.00,VWS V13.01,2013-08-05 06:50:00,
2013-08-05 01:55:00,71.2,71.2,30.01,NNE,13,0.0,0.0,100,0.00,,,0.00,VWS V13.01,2013-08-05 06:55:00,
2013-08-05 02:00:00,71.2,71.2,30.01,North,7,0.0,0.0,100,0.00,,,0.00,VWS V13.01,2013-08-05 07:00:00,
2013-08-05 02:05:00,71.2,71.2,30.01,NNE,14,0.0,3.1,100,0.00,,,0.00,VWS V13.01,2013-08-05 07:05:00,
2013-08-05 02:10:00,71.2,71.2,30.01,NNE,22,0.0,0.0,100,0.00,,,0.00,VWS V13.01,2013-08-05 07:10:00,
2013-08-05 02:15:00,71.2,71.2,30.01,NE,38,0.0,0.0,100,0.00,,,0.00,VWS V13.01,2013-08-05 07:15:00,
2013-08-05 02:20:00,71.4,71.4,30.01,NNE,24,0.0,3.1,100,0.00,,,0.00,VWS V13.01,2013-08-05 07:20:00,
2013-08-05 02:25:00,71.4,71.4,30.01,NNE,24,0.0,0.0,100,0.00,,,0.00,VWS V13.01,2013-08-05 07:25:00,
2013-08-05 02:30:00,71.2,71.2,29.98,NE,38,2.7,2.7,100,0.00,,,0.00,VWS V13.01,2013-08-05 07:30:00,
2013-08-05 02:35:00,71.2,71.2,29.98,NNW,336,2.7,2.7,100,0.00,,,0.00,VWS V13.01,2013-08-05 07:35:00,
2013-08-05 02:40:00,71.4,71.4,29.98,NNE,21,2.2,2.7,100,0.00,,,0.00,VWS V13.01,2013-08-05 07:40:00,
2013-08-05 02:45:00,71.4,71.4,29.98,NE,39,0.0,0.0,100,0.00,,,0.00,VWS V13.01,2013-08-05 07:45:00,
2013-08-05 02:50:00,71.4,71.4,29.98,NNE,31,3.1,3.1,100,0.00,,,0.00,VWS V13.01,2013-08-05 07:50:00,
2013-08-05 02:55:00,71.4,71.4,29.98,NNE,25,2.7,2.7,100,0.00,,,0.00,VWS V13.01,2013-08-05 07:55:00,
2013-08-05 03:00:00,71.4,71.4,29.98,NE,46,0.0,0.0,100,0.00,,,0.00,VWS V13.01,2013-08-05 08:00:00,
2013-08-05 03:05:00,71.4,71.4,29.98,NNE,20,2.2,2.7,100,0.00,,,0.00,VWS V13.01,2013-08-05 08:05:00,
2013-08-05 03:10:00,71.4,71.4,29.98,NNE,13,3.6,3.6,100,0.00,,,0.00,VWS V13.01,2013-08-05 08:10:00,
2013-08-05 03:15:00,71.6,71.6,29.98,NNE,20,2.7,2.7,100,0.00,,,0.00,VWS V13.01,2013-08-05 08:15:00,
2013-08-05 03:20:00,71.6,71.6,29.98,NNE,17,0.0,0.0,100,0.00,,,0.00,VWS V13.01,2013-08-05 08:20:00,
2013-08-05 03:25:00,71.6,71.6,29.98,NNE,33,0.0,0.0,100,0.00,,,0.00,VWS V13.01,2013-08-05 08:25:00,
2013-08-05 03:30:00,71.6,71.6,29.98,NE,54,3.1,3.6,100,0.00,,,0.00,VWS V13.01,2013-08-05 08:30:00,
2013-08-05 03:36:00,71.6,71.6,29.98,NE,36,0.0,2.7,100,0.00,,,0.00,VWS V13.01,2013-08-05 08:36:00,
2013-08-05 03:41:00,71.6,71.6,29.98,ENE,65,0.0,0.0,100,0.00,,,0.00,VWS V13.01,2013-08-05 08:41:00,
2013-08-05 03:46:00,71.6,71.6,29.98,NE,35,0.0,0.0,100,0.00,,,0.00,VWS V13.01,2013-08-05 08:46:00,
2013-08-05 03:52:00,71.8,71.8,29.98,NE,34,0.0,0.0,100,0.00,,,0.00,VWS V13.01,2013-08-05 08:52:00,
2013-08-05 03:57:00,71.8,71.8,29.98,NNW,346,0.0,0.0,100,0.00,,,0.00,VWS V13.01,2013-08-05 08:57:00,
2013-08-05 04:02:00,71.8,71.8,29.98,NE,50,2.2,2.7,100,0.00,,,0.00,VWS V13.01,2013-08-05 09:02:00,
2013-08-05 04:07:00,71.8,71.8,29.98,NE,42,0.0,0.0,100,0.00,,,0.00,VWS V13.01,2013-08-05 09:07:00,
2013-08-05 04:12:00,71.8,71.8,29.98,NNW,345,3.1,3.1,100,0.00,,,0.00,VWS V13.01,2013-08-05 09:12:00,
2013-08-05 04:18:00,71.8,71.8,29.98,NE,38,0.0,5.4,100,0.00,,,0.00,VWS V13.01,2013-08-05 09:18:00,
2013-08-05 04:23:00,71.8,71.8,29.98,North,356,0.0,0.0,100,0.00,,,0.00,VWS V13.01,2013-08-05 09:23:00,
2013-08-05 04:28:00,71.9,71.9,29.98,ENE,68,0.0,3.1,100,0.00,,,0.00,VWS V13.01,2013-08-05 09:28:00,
2013-08-05 04:33:00,71.9,71.9,29.98,ENE,65,0.0,0.0,100,0.00,,,0.00,VWS V13.01,2013-08-05 09:33:00,
2013-08-05 04:38:00,71.9,71.9,29.98,ENE,65,0.0,0.0,100,0.00,,,0.00,VWS V13.01,2013-08-05 09:38:00,
2013-08-05 04:43:00,71.9,71.9,29.98,NE,35,0.0,0.0,100,0.00,,,0.00,VWS V13.01,2013-08-05 09:43:00,
2013-08-05 04:48:00,71.9,71.9,29.98,NNE,21,3.6,3.6,100,0.00,,,0.00,VWS V13.01,2013-08-05 09:48:00,
2013-08-05 04:53:00,71.9,71.9,29.98,NE,34,0.0,0.0,100,0.00,,,0.00,VWS V13.01,2013-08-05 09:53:00,
2013-08-05 04:58:00,71.9,71.9,29.98,NE,45,0.0,0.0,100,0.00,,,0.00,VWS V13.01,2013-08-05 09:58:00,
2013-08-05 05:03:00,71.9,71.9,29.98,NE,37,0.0,0.0,100,0.00,,,0.00,VWS V13.01,2013-08-05 10:03:00,
2013-08-05 05:08:00,71.9,71.9,29.98,NNE,23,0.0,0.0,100,0.00,,,0.00,VWS V13.01,2013-08-05 10:08:00,
2013-08-05 05:14:00,71.9,71.9,29.98,NNW,340,0.0,0.0,100,0.00,,,0.00,VWS V13.01,2013-08-05 10:14:00,
2013-08-05 05:19:00,71.9,71.9,29.98,NE,43,0.0,2.7,100,0.00,,,0.00,VWS V13.01,2013-08-05 10:19:00,
2013-08-05 05:24:00,71.9,71.9,29.98,NE,34,0.0,0.0,100,0.00,,,0.00,VWS V13.01,2013-08-05 10:24:00,
2013-08-05 05:29:00,71.9,71.9,29.98,ESE,122,0.0,0.0,100,0.00,,,0.00,VWS V13.01,2013-08-05 10:29:00,
2013-08-05 05:34:00,71.9,71.9,29.98,NNE,31,0.0,0.0,100,0.00,,,0.00,VWS V13.01,2013-08-05 10:34:00,
2013-08-05 05:39:00,71.9,71.9,29.98,NNE,13,0.0,0.0,100,0.00,,,0.00,VWS V13.01,2013-08-05 10:39:00,
2013-08-05 05:45:00,72.1,72.1,29.98,East,95,0.0,0.0,100,0.00,,,0.00,VWS V13.01,2013-08-05 10:45:00,
2013-08-05 05:50:00,71.9,71.9,29.98,NNE,20,0.0,0.0,100,0.00,,,0.00,VWS V13.01,2013-08-05 10:50:00,
2013-08-05 05:55:00,72.1,72.1,29.98,NNE,22,0.0,0.0,100,0.00,,,0.00,VWS V13.01,2013-08-05 10:55:00,
2013-08-05 06:00:00,72.1,72.1,29.98,NNE,17,0.0,0.0,100,0.00,,,0.00,VWS V13.01,2013-08-05 11:00:00,
2013-08-05 06:06:00,72.1,72.1,29.98,NNE,29,0.0,2.7,100,0.00,,,0.00,VWS V13.01,2013-08-05 11:06:00,
2013-08-05 06:11:00,72.1,72.1,29.98,NE,36,2.2,2.7,100,0.00,,,0.00,VWS V13.01,2013-08-05 11:11:00,
2013-08-05 06:16:00,72.1,72.1,29.98,NE,40,3.1,3.1,100,0.00,,,0.00,VWS V13.01,2013-08-05 11:16:00,
2013-08-05 06:21:00,72.3,72.3,29.98,NNE,13,0.0,2.7,100,0.00,,,0.00,VWS V13.01,2013-08-05 11:21:00,
2013-08-05 06:26:00,72.3,72.3,29.98,ENE,57,0.0,2.2,100,0.00,,,0.00,VWS V13.01,2013-08-05 11:26:00,
2013-08-05 06:32:00,72.3,72.3,29.98,NNE,33,0.0,0.0,100,0.00,,,0.00,VWS V13.01,2013-08-05 11:32:00,
2013-08-05 06:36:00,72.3,72.3,29.98,ENE,71,0.0,0.0,100,0.00,,,0.00,VWS V13.01,2013-08-05 11:36:00,
2013-08-05 06:41:00,72.3,72.3,29.98,NNE,33,4.0,4.0,100,0.00,,,0.00,VWS V13.01,2013-08-05 11:41:00,
2013-08-05 06:47:00,72.5,72.5,29.98,NNE,12,0.0,0.0,100,0.00,,,0.00,VWS V13.01,2013-08-05 11:47:00,
2013-08-05 06:52:00,72.5,72.5,29.98,East,101,0.0,0.0,100,0.00,,,0.00,VWS V13.01,2013-08-05 11:52:00,
2013-08-05 06:57:00,72.5,72.5,29.98,ESE,116,0.0,2.7,100,0.00,,,0.00,VWS V13.01,2013-08-05 11:57:00,
2013-08-05 07:02:00,72.5,72.5,29.98,East,100,0.0,0.0,100,0.00,,,0.00,VWS V13.01,2013-08-05 12:02:00,
2013-08-05 07:07:00,72.5,72.5,29.98,East,95,0.0,2.2,100,0.00,,,0.00,VWS V13.01,2013-08-05 12:07:00,
2013-08-05 07:12:00,72.5,72.5,29.98,ENE,72,0.0,0.0,100,0.00,,,0.00,VWS V13.01,2013-08-05 12:12:00,
2013-08-05 07:18:00,72.7,72.7,29.95,NE,47,0.0,0.0,100,0.00,,,0.00,VWS V13.01,2013-08-05 12:18:00,
2013-08-05 07:22:00,72.7,72.7,29.95,NNE,16,3.6,3.6,100,0.00,,,0.00,VWS V13.01,2013-08-05 12:22:00,
2013-08-05 07:28:00,72.7,72.4,29.95,NE,38,4.0,4.0,99,0.00,,,0.00,VWS V13.01,2013-08-05 12:28:00,
2013-08-05 07:33:00,72.8,72.6,29.98,ENE,59,0.0,0.0,99,0.00,,,0.00,VWS V13.01,2013-08-05 12:33:00,
2013-08-05 07:37:00,72.8,72.6,29.98,NE,42,3.6,3.6,99,0.00,,,0.00,VWS V13.01,2013-08-05 12:37:00,
2013-08-05 07:43:00,72.8,72.6,29.98,NE,46,2.7,3.1,99,0.00,,,0.00,VWS V13.01,2013-08-05 12:43:00,
2013-08-05 07:48:00,73.0,72.7,29.98,ENE,62,0.0,0.0,99,0.00,,,0.00,VWS V13.01,2013-08-05 12:48:00,
2013-08-05 07:53:00,73.0,72.7,29.98,ENE,60,0.0,0.0,99,0.00,,,0.00,VWS V13.01,2013-08-05 12:53:00,
2013-08-05 07:59:00,73.0,72.4,29.95,ENE,75,0.0,0.0,98,0.00,,,0.00,VWS V13.01,2013-08-05 12:59:00,
2013-08-05 08:05:00,73.2,72.3,29.95,NE,47,0.0,0.0,97,0.00,,,0.00,VWS V13.01,2013-08-05 13:05:00,
2013-08-05 08:10:00,73.4,72.5,29.95,ENE,57,0.0,0.0,97,0.00,,,0.00,VWS V13.01,2013-08-05 13:10:00,
2013-08-05 08:15:00,73.7,72.8,29.98,NNE,33,2.7,2.7,97,0.00,,,0.00,VWS V13.01,2013-08-05 13:15:00,
2013-08-05 08:20:00,73.7,71.6,29.98,NNE,23,2.7,3.1,93,0.00,,,0.00,VWS V13.01,2013-08-05 13:20:00,
2013-08-05 08:25:00,73.9,71.1,29.98,NE,43,2.2,2.7,91,0.00,,,0.00,VWS V13.01,2013-08-05 13:25:00,
2013-08-05 08:30:00,74.1,71.3,29.95,NE,40,0.0,3.1,91,0.00,,,0.00,VWS V13.01,2013-08-05 13:30:00,
2013-08-05 08:36:00,74.3,71.2,29.95,North,7,0.0,4.0,90,0.00,,,0.00,VWS V13.01,2013-08-05 13:36:00,
2013-08-05 08:40:00,74.5,71.3,29.95,NNE,25,2.2,2.2,90,0.00,,,0.00,VWS V13.01,2013-08-05 13:40:00,
2013-08-05 08:45:00,74.8,71.4,29.95,NE,54,0.0,2.2,89,0.00,,,0.00,VWS V13.01,2013-08-05 13:45:00,
2013-08-05 08:51:00,75.0,70.9,29.95,East,94,0.0,0.0,87,0.00,,,0.00,VWS V13.01,2013-08-05 13:51:00,
2013-08-05 08:56:00,75.2,70.7,29.95,ENE,60,0.0,2.7,86,0.00,,,0.00,VWS V13.01,2013-08-05 13:56:00,
2013-08-05 09:01:00,75.2,70.4,29.98,North,11,2.7,2.7,85,0.00,,,0.00,VWS V13.01,2013-08-05 14:01:00,
2013-08-05 09:06:00,75.4,70.5,29.98,NE,54,0.0,0.0,85,0.00,,,0.00,VWS V13.01,2013-08-05 14:06:00,
2013-08-05 09:11:00,75.9,71.4,29.98,NE,52,0.0,0.0,86,0.00,,,0.00,VWS V13.01,2013-08-05 14:11:00,
2013-08-05 09:16:00,76.3,70.7,29.95,ENE,61,2.2,3.1,83,0.00,,,0.00,VWS V13.01,2013-08-05 14:16:00,
2013-08-05 09:22:00,76.6,70.4,29.95,ENE,68,0.0,0.0,81,0.00,,,0.00,VWS V13.01,2013-08-05 14:22:00,
2013-08-05 09:27:00,76.6,70.0,29.95,ESE,114,0.0,2.2,80,0.00,,,0.00,VWS V13.01,2013-08-05 14:27:00,
2013-08-05 09:32:00,76.6,70.0,29.95,ESE,107,0.0,2.2,80,0.00,,,0.00,VWS V13.01,2013-08-05 14:32:00,
2013-08-05 09:37:00,77.0,70.3,29.95,NNE,31,2.7,3.6,80,0.00,,,0.00,VWS V13.01,2013-08-05 14:37:00,
2013-08-05 09:42:00,77.9,70.1,29.95,NE,41,3.1,4.5,77,0.00,,,0.00,VWS V13.01,2013-08-05 14:42:00,
2013-08-05 09:47:00,78.1,69.9,29.95,NE,56,2.7,4.0,76,0.00,,,0.00,VWS V13.01,2013-08-05 14:47:00,
2013-08-05 09:52:00,78.1,69.9,29.95,NNE,26,3.1,3.1,76,0.00,,,0.00,VWS V13.01,2013-08-05 14:52:00,
2013-08-05 09:57:00,78.2,69.7,29.95,NNE,27,2.7,4.0,75,0.00,,,0.00,VWS V13.01,2013-08-05 14:57:00,
2013-08-05 10:02:00,78.1,69.1,29.95,ENE,72,3.6,3.6,74,0.00,,,0.00,VWS V13.01,2013-08-05 15:02:00,
2013-08-05 10:07:00,78.1,69.1,29.95,ENE,74,3.1,3.1,74,0.00,,,0.00,VWS V13.01,2013-08-05 15:07:00,
2013-08-05 10:12:00,78.1,69.1,29.95,NE,47,0.0,0.0,74,0.00,,,0.00,VWS V13.01,2013-08-05 15:12:00,
2013-08-05 10:18:00,78.2,69.7,29.95,NNW,330,2.2,2.7,75,0.00,,,0.00,VWS V13.01,2013-08-05 15:18:00,
2013-08-05 10:23:00,78.2,69.3,29.95,ENE,66,3.1,3.1,74,0.00,,,0.00,VWS V13.01,2013-08-05 15:23:00,
2013-08-05 10:28:00,78.6,69.6,29.95,NE,37,2.7,2.7,74,0.00,,,0.00,VWS V13.01,2013-08-05 15:28:00,
2013-08-05 10:33:00,79.1,69.3,29.95,ESE,118,3.1,4.0,72,0.00,,,0.00,VWS V13.01,2013-08-05 15:33:00,
2013-08-05 10:38:00,79.3,69.1,29.95,NNW,332,2.2,4.0,71,0.00,,,0.00,VWS V13.01,2013-08-05 15:38:00,
2013-08-05 10:43:00,79.5,69.3,29.95,SE,131,5.4,5.4,71,0.00,,,0.00,VWS V13.01,2013-08-05 15:43:00,
2013-08-05 10:48:00,79.1,69.3,29.95,ESE,111,3.6,4.9,72,0.00,,,0.00,VWS V13.01,2013-08-05 15:48:00,
2013-08-05 10:53:00,78.8,69.0,29.95,ESE,115,2.7,4.0,72,0.00,,,0.00,VWS V13.01,2013-08-05 15:53:00,
2013-08-05 10:59:00,78.6,69.6,29.95,NE,42,2.2,3.1,74,0.00,,,0.00,VWS V13.01,2013-08-05 15:59:00,
2013-08-05 11:04:00,78.8,69.4,29.95,NE,47,0.0,0.0,73,0.00,,,0.00,VWS V13.01,2013-08-05 16:04:00,
2013-08-05 11:09:00,79.3,69.1,29.95,NE,44,4.0,4.0,71,0.00,,,0.00,VWS V13.01,2013-08-05 16:09:00,
2013-08-05 11:14:00,79.7,69.0,29.95,NNE,25,2.7,3.1,70,0.00,,,0.00,VWS V13.01,2013-08-05 16:14:00,
2013-08-05 11:19:00,80.2,69.6,29.95,ENE,65,2.7,3.6,70,0.00,,,0.00,VWS V13.01,2013-08-05 16:19:00,
2013-08-05 11:24:00,80.6,69.5,29.95,ENE,59,4.0,5.4,69,0.00,,,0.00,VWS V13.01,2013-08-05 16:24:00,
2013-08-05 11:29:00,80.2,69.1,29.95,NNE,12,4.0,4.0,69,0.00,,,0.00,VWS V13.01,2013-08-05 16:29:00,
2013-08-05 11:34:00,80.2,69.1,29.95,NE,39,0.0,0.0,69,0.00,,,0.00,VWS V13.01,2013-08-05 16:34:00,
2013-08-05 11:40:00,80.4,68.9,29.95,NE,53,2.7,3.6,68,0.00,,,0.00,VWS V13.01,2013-08-05 16:40:00,
2013-08-05 11:45:00,80.4,69.7,29.95,NNE,32,3.6,3.6,70,0.00,,,0.00,VWS V13.01,2013-08-05 16:45:00,
2013-08-05 11:50:00,80.4,69.7,29.95,NNE,30,3.1,3.1,70,0.00,,,0.00,VWS V13.01,2013-08-05 16:50:00,
2013-08-05 11:55:00,80.4,69.7,29.95,East,94,3.1,3.1,70,0.00,,,0.00,VWS V13.01,2013-08-05 16:55:00,
2013-08-05 12:00:00,81.1,69.6,29.95,NNE,14,4.0,4.0,68,0.00,,,0.00,VWS V13.01,2013-08-05 17:00:00,
2013-08-05 12:05:00,81.7,69.2,29.95,North,355,2.7,3.6,66,0.00,,,0.00,VWS V13.01,2013-08-05 17:05:00,
2013-08-05 12:10:00,81.8,68.9,29.95,East,97,2.7,3.1,65,0.00,,,0.00,VWS V13.01,2013-08-05 17:10:00,
2013-08-05 12:16:00,82.4,69.0,29.95,NNW,335,3.6,3.6,64,0.00,,,0.00,VWS V13.01,2013-08-05 17:16:00,
2013-08-05 12:21:00,83.1,70.1,29.95,ENE,57,0.0,0.0,65,0.00,,,0.00,VWS V13.01,2013-08-05 17:21:00,
2013-08-05 12:27:00,83.3,68.9,29.95,East,87,2.7,2.7,62,0.00,,,0.00,VWS V13.01,2013-08-05 17:27:00,
2013-08-05 12:32:00,83.1,68.7,29.95,East,92,2.7,6.3,62,0.00,,,0.00,VWS V13.01,2013-08-05 17:32:00,
2013-08-05 12:37:00,82.9,68.6,29.95,ENE,64,3.6,4.0,62,0.00,,,0.00,VWS V13.01,2013-08-05 17:37:00,
2013-08-05 12:42:00,82.6,68.2,29.95,NE,51,3.1,3.1,62,0.00,,,0.00,VWS V13.01,2013-08-05 17:42:00,
2013-08-05 12:48:00,82.7,68.9,29.95,ENE,69,3.1,3.6,63,0.00,,,0.00,VWS V13.01,2013-08-05 17:48:00,
2013-08-05 12:52:00,82.7,68.9,29.95,NE,54,2.7,3.1,63,0.00,,,0.00,VWS V13.01,2013-08-05 17:52:00,
2013-08-05 12:57:00,82.7,68.9,29.95,ESE,119,2.7,4.0,63,0.00,,,0.00,VWS V13.01,2013-08-05 17:57:00,
2013-08-05 13:03:00,82.6,69.6,29.95,NNE,29,2.2,3.6,65,0.00,,,0.00,VWS V13.01,2013-08-05 18:03:00,
2013-08-05 13:08:00,83.5,70.0,29.95,East,91,3.1,4.0,64,0.00,,,0.00,VWS V13.01,2013-08-05 18:08:00,
2013-08-05 13:13:00,83.6,69.7,29.92,ESE,103,4.0,4.9,63,0.00,,,0.00,VWS V13.01,2013-08-05 18:13:00,
2013-08-05 13:18:00,83.5,69.1,29.92,SSW,196,2.7,2.7,62,0.00,,,0.00,VWS V13.01,2013-08-05 18:18:00,
2013-08-05 13:24:00,83.6,69.7,29.92,ENE,65,3.1,3.1,63,0.00,,,0.00,VWS V13.01,2013-08-05 18:24:00,
2013-08-05 13:29:00,84.4,69.0,29.92,North,357,2.7,2.7,60,0.00,,,0.00,VWS V13.01,2013-08-05 18:29:00,
2013-08-05 13:34:00,85.1,70.1,29.92,South,171,3.1,3.6,61,0.00,,,0.00,VWS V13.01,2013-08-05 18:34:00,
2013-08-05 13:39:00,85.1,69.7,29.92,SW,227,2.2,3.6,60,0.00,,,0.00,VWS V13.01,2013-08-05 18:39:00,
2013-08-05 13:44:00,85.6,69.7,29.92,NW,304,3.1,3.1,59,0.00,,,0.00,VWS V13.01,2013-08-05 18:44:00,
2013-08-05 13:50:00,86.0,70.0,29.92,West,266,0.0,0.0,59,0.00,,,0.00,VWS V13.01,2013-08-05 18:50:00,
2013-08-05 13:55:00,85.6,69.7,29.92,East,95,3.1,4.0,59,0.00,,,0.00,VWS V13.01,2013-08-05 18:55:00,
2013-08-05 14:00:00,85.6,70.2,29.92,SSE,154,3.6,3.6,60,0.00,,,0.00,VWS V13.01,2013-08-05 19:00:00,
2013-08-05 14:05:00,85.8,69.8,29.92,NNW,347,2.7,2.7,59,0.00,,,0.00,VWS V13.01,2013-08-05 19:05:00,
2013-08-05 14:10:00,86.0,69.5,29.92,WNW,303,2.7,2.7,58,0.00,,,0.00,VWS V13.01,2013-08-05 19:10:00,
2013-08-05 14:15:00,86.2,70.2,29.92,SSE,159,2.2,2.2,59,0.00,,,0.00,VWS V13.01,2013-08-05 19:15:00,
2013-08-05 14:20:00,86.3,70.3,29.92,East,101,0.0,0.0,59,0.00,,,0.00,VWS V13.01,2013-08-05 19:20:00,
2013-08-05 14:26:00,86.7,70.2,29.92,ENE,65,2.7,3.1,58,0.00,,,0.00,VWS V13.01,2013-08-05 19:26:00,
2013-08-05 14:31:00,87.1,71.0,29.92,South,171,3.1,4.0,59,0.00,,,0.00,VWS V13.01,2013-08-05 19:31:00,
2013-08-05 14:37:00,86.9,70.3,29.92,ESE,121,3.1,3.6,58,0.00,,,0.00,VWS V13.01,2013-08-05 19:37:00,
2013-08-05 14:42:00,87.2,70.2,29.92,North,3,0.0,0.0,57,0.00,,,0.00,VWS V13.01,2013-08-05 19:42:00,
2013-08-05 14:47:00,88.3,71.2,29.92,South,173,5.4,5.4,57,0.00,,,0.00,VWS V13.01,2013-08-05 19:47:00,
2013-08-05 14:52:00,88.0,70.3,29.92,WNW,294,3.1,3.1,56,0.00,,,0.00,VWS V13.01,2013-08-05 19:52:00,
2013-08-05 14:59:00,88.5,70.8,29.89,West,261,3.6,3.6,56,0.00,,,0.00,VWS V13.01,2013-08-05 19:59:00,
2013-08-05 15:04:00,88.3,71.2,29.89,NNW,331,2.7,2.7,57,0.00,,,0.00,VWS V13.01,2013-08-05 20:04:00,
2013-08-05 15:09:00,88.7,71.5,29.89,West,264,2.7,3.1,57,0.00,,,0.00,VWS V13.01,2013-08-05 20:09:00,
2013-08-05 15:14:00,88.7,69.9,29.89,West,259,2.2,2.2,54,0.00,,,0.00,VWS V13.01,2013-08-05 20:14:00,
2013-08-05 15:19:00,89.0,70.2,29.89,NW,304,2.2,3.1,54,0.00,,,0.00,VWS V13.01,2013-08-05 20:19:00,
2013-08-05 15:25:00,89.2,70.4,29.89,WSW,242,0.0,0.0,54,0.00,,,0.00,VWS V13.01,2013-08-05 20:25:00,
2013-08-05 15:30:00,89.6,70.8,29.89,South,188,0.0,4.0,54,0.00,,,0.00,VWS V13.01,2013-08-05 20:30:00,
2013-08-05 15:35:00,89.9,71.1,29.89,East,86,2.2,2.7,54,0.00,,,0.00,VWS V13.01,2013-08-05 20:35:00,
2013-08-05 15:40:00,89.4,70.0,29.89,South,169,3.1,4.0,53,0.00,,,0.00,VWS V13.01,2013-08-05 20:40:00,
2013-08-05 15:45:00,89.0,70.8,29.89,SSE,156,3.1,3.1,55,0.00,,,0.00,VWS V13.01,2013-08-05 20:45:00,
2013-08-05 15:50:00,89.2,70.4,29.89,SSE,156,2.7,2.7,54,0.00,,,0.00,VWS V13.01,2013-08-05 20:50:00,
2013-08-05 15:55:00,89.8,71.4,29.89,South,179,0.0,0.0,55,0.00,,,0.00,VWS V13.01,2013-08-05 20:55:00,
2013-08-05 16:00:00,90.7,71.2,29.86,WSW,257,3.1,3.6,53,0.00,,,0.00,VWS V13.01,2013-08-05 21:00:00,
2013-08-05 16:06:00,90.5,71.0,29.86,WSW,238,3.1,3.1,53,0.00,,,0.00,VWS V13.01,2013-08-05 21:06:00,
2013-08-05 16:11:00,90.1,71.2,29.86,East,96,2.2,3.6,54,0.00,,,0.00,VWS V13.01,2013-08-05 21:11:00,
2013-08-05 16:16:00,90.3,71.4,29.86,South,182,3.6,4.0,54,0.00,,,0.00,VWS V13.01,2013-08-05 21:16:00,
2013-08-05 16:21:00,89.9,71.6,29.86,SE,127,3.6,4.0,55,0.00,,,0.00,VWS V13.01,2013-08-05 21:21:00,
2013-08-05 16:26:00,89.4,71.7,29.86,South,178,2.2,2.2,56,0.00,,,0.00,VWS V13.01,2013-08-05 21:26:00,
2013-08-05 16:32:00,89.2,71.5,29.86,SSE,153,2.2,2.7,56,0.00,,,0.00,VWS V13.01,2013-08-05 21:32:00,
2013-08-05 16:37:00,89.4,71.1,29.86,SSE,152,0.0,0.0,55,0.00,,,0.00,VWS V13.01,2013-08-05 21:37:00,
2013-08-05 16:42:00,89.4,71.1,29.86,South,175,4.0,4.0,55,0.00,,,0.00,VWS V13.01,2013-08-05 21:42:00,
2013-08-05 16:47:00,88.9,71.2,29.86,SSE,167,0.0,0.0,56,0.00,,,0.00,VWS V13.01,2013-08-05 21:47:00,
2013-08-05 16:52:00,89.2,71.5,29.86,ENE,66,2.2,4.0,56,0.00,,,0.00,VWS V13.01,2013-08-05 21:52:00,
2013-08-05 16:57:00,89.2,71.5,29.86,East,100,3.1,3.6,56,0.00,,,0.00,VWS V13.01,2013-08-05 21:57:00,
2013-08-05 17:02:00,89.2,71.5,29.86,SSE,150,2.7,3.1,56,0.00,,,0.00,VWS V13.01,2013-08-05 22:02:00,
2013-08-05 17:07:00,89.4,70.6,29.86,SSE,154,0.0,2.2,54,0.00,,,0.00,VWS V13.01,2013-08-05 22:07:00,
2013-08-05 17:13:00,90.1,71.2,29.86,East,85,0.0,0.0,54,0.00,,,0.00,VWS V13.01,2013-08-05 22:13:00,
2013-08-05 17:18:00,90.5,71.6,29.86,ENE,66,0.0,0.0,54,0.00,,,0.00,VWS V13.01,2013-08-05 22:18:00,
2013-08-05 17:23:00,90.3,70.9,29.86,ENE,67,0.0,0.0,53,0.00,,,0.00,VWS V13.01,2013-08-05 22:23:00,
2013-08-05 17:28:00,90.3,70.9,29.86,ENE,58,0.0,0.0,53,0.00,,,0.00,VWS V13.01,2013-08-05 22:28:00,
2013-08-05 17:33:00,90.3,70.9,29.86,East,90,0.0,2.2,53,0.00,,,0.00,VWS V13.01,2013-08-05 22:33:00,
2013-08-05 17:38:00,90.5,71.6,29.86,East,81,0.0,0.0,54,0.00,,,0.00,VWS V13.01,2013-08-05 22:38:00,
2013-08-05 17:43:00,90.5,71.0,29.86,ESE,117,2.7,2.7,53,0.00,,,0.00,VWS V13.01,2013-08-05 22:43:00,
2013-08-05 17:48:00,90.3,71.4,29.83,East,96,2.7,2.7,54,0.00,,,0.00,VWS V13.01,2013-08-05 22:48:00,
2013-08-05 17:53:00,90.1,71.8,29.83,East,96,2.2,2.2,55,0.00,,,0.00,VWS V13.01,2013-08-05 22:53:00,
2013-08-05 17:58:00,90.1,71.8,29.83,ENE,76,2.7,2.7,55,0.00,,,0.00,VWS V13.01,2013-08-05 22:58:00,
2013-08-05 18:04:00,89.9,71.6,29.83,ESE,114,2.2,3.1,55,0.00,,,0.00,VWS V13.01,2013-08-05 23:04:00,
2013-08-05 18:09:00,89.8,72.0,29.83,East,97,2.2,2.7,56,0.00,,,0.00,VWS V13.01,2013-08-05 23:09:00,
2013-08-05 18:14:00,89.8,71.4,29.83,ENE,65,2.2,2.7,55,0.00,,,0.00,VWS V13.01,2013-08-05 23:14:00,
2013-08-05 18:19:00,89.9,71.6,29.83,ENE,75,0.0,0.0,55,0.00,,,0.00,VWS V13.01,2013-08-05 23:19:00,
2013-08-05 18:25:00,89.9,71.1,29.83,NE,45,2.2,2.7,54,0.00,,,0.00,VWS V13.01,2013-08-05 23:25:00,
2013-08-05 18:30:00,89.8,71.4,29.83,ENE,69,0.0,0.0,55,0.00,,,0.00,VWS V13.01,2013-08-05 23:30:00,
2013-08-05 18:35:00,89.8,71.4,29.83,East,87,0.0,0.0,55,0.00,,,0.00,VWS V13.01,2013-08-05 23:35:00,
2013-08-05 18:40:00,89.8,71.4,29.83,ESE,116,2.7,3.1,55,0.00,,,0.00,VWS V13.01,2013-08-05 23:40:00,
2013-08-05 18:45:00,89.4,72.2,29.83,East,96,0.0,2.7,57,0.00,,,0.00,VWS V13.01,2013-08-05 23:45:00,
2013-08-05 18:50:00,89.4,72.2,29.83,NNE,32,3.1,3.1,57,0.00,,,0.00,VWS V13.01,2013-08-05 23:50:00,
2013-08-05 18:55:00,89.0,71.8,29.83,East,91,3.1,3.1,57,0.00,,,0.00,VWS V13.01,2013-08-05 23:55:00,
2013-08-05 19:00:00,88.9,71.7,29.83,ESE,115,2.7,3.6,57,0.00,,,0.00,VWS V13.01,2013-08-06 00:00:00,
2013-08-05 19:05:00,88.7,71.5,29.83,East,84,4.0,4.0,57,0.00,,,0.00,VWS V13.01,2013-08-06 00:05:00,
2013-08-05 19:10:00,88.1,71.5,29.83,ENE,68,2.7,2.7,58,0.00,,,0.00,VWS V13.01,2013-08-06 00:10:00,
2013-08-05 19:16:00,88.0,71.3,29.83,East,97,2.2,3.6,58,0.00,,,0.00,VWS V13.01,2013-08-06 00:16:00,
2013-08-05 19:21:00,88.0,71.3,29.83,East,94,2.2,2.2,58,0.00,,,0.00,VWS V13.01,2013-08-06 00:21:00,
2013-08-05 19:26:00,87.8,71.2,29.83,NE,56,2.7,2.7,58,0.00,,,0.00,VWS V13.01,2013-08-06 00:26:00,
2013-08-05 19:31:00,87.6,71.5,29.83,ENE,61,3.1,3.1,59,0.00,,,0.00,VWS V13.01,2013-08-06 00:31:00,
2013-08-05 19:36:00,87.2,71.2,29.83,ENE,76,3.1,3.1,59,0.00,,,0.00,VWS V13.01,2013-08-06 00:36:00,
2013-08-05 19:42:00,87.1,71.5,29.83,East,80,3.6,3.6,60,0.00,,,0.00,VWS V13.01,2013-08-06 00:42:00,
2013-08-05 19:47:00,86.7,71.2,29.83,East,85,2.7,2.7,60,0.00,,,0.00,VWS V13.01,2013-08-06 00:47:00,
2013-08-05 19:52:00,86.5,71.5,29.83,East,81,2.7,3.1,61,0.00,,,0.00,VWS V13.01,2013-08-06 00:52:00,
2013-08-05 19:57:00,86.3,71.8,29.83,NE,46,2.7,2.7,62,0.00,,,0.00,VWS V13.01,2013-08-06 00:57:00,
2013-08-05 20:02:00,86.2,71.6,29.83,NNE,27,0.0,0.0,62,0.00,,,0.00,VWS V13.01,2013-08-06 01:02:00,
2013-08-05 20:07:00,86.2,71.6,29.83,NNE,27,0.0,0.0,62,0.00,,,0.00,VWS V13.01,2013-08-06 01:07:00,
2013-08-05 20:13:00,86.2,72.1,29.83,NNE,27,0.0,0.0,63,0.00,,,0.00,VWS V13.01,2013-08-06 01:13:00,
2013-08-05 20:18:00,85.6,72.1,29.83,NNE,27,0.0,0.0,64,0.00,,,0.00,VWS V13.01,2013-08-06 01:18:00,
2013-08-05 20:23:00,85.3,72.2,29.83,NNE,27,0.0,0.0,65,0.00,,,0.00,VWS V13.01,2013-08-06 01:23:00,
2013-08-05 20:28:00,84.9,72.3,29.83,NNE,27,0.0,0.0,66,0.00,,,0.00,VWS V13.01,2013-08-06 01:28:00,
2013-08-05 20:33:00,84.9,72.7,29.83,NNE,27,0.0,0.0,67,0.00,,,0.00,VWS V13.01,2013-08-06 01:33:00,
2013-08-05 20:39:00,84.5,72.4,29.83,NNE,27,0.0,0.0,67,0.00,,,0.00,VWS V13.01,2013-08-06 01:39:00,
2013-08-05 20:44:00,84.4,72.2,29.86,NNE,27,0.0,0.0,67,0.00,,,0.00,VWS V13.01,2013-08-06 01:44:00,
2013-08-05 20:49:00,84.2,72.5,29.86,NNE,27,0.0,0.0,68,0.00,,,0.00,VWS V13.01,2013-08-06 01:49:00,
2013-08-05 20:54:00,84.0,72.7,29.86,NNE,27,0.0,0.0,69,0.00,,,0.00,VWS V13.01,2013-08-06 01:54:00,
2013-08-05 20:59:00,83.8,72.6,29.86,NNE,27,0.0,0.0,69,0.00,,,0.00,VWS V13.01,2013-08-06 01:59:00,
2013-08-05 21:04:00,83.6,72.8,29.86,NNE,27,0.0,0.0,70,0.00,,,0.00,VWS V13.01,2013-08-06 02:04:00,
2013-08-05 21:09:00,83.6,72.4,29.86,ESE,106,0.0,2.2,69,0.00,,,0.00,VWS V13.01,2013-08-06 02:09:00,
2013-08-05 21:14:00,83.5,72.2,29.86,ESE,103,0.0,0.0,69,0.00,,,0.00,VWS V13.01,2013-08-06 02:14:00,
2013-08-05 21:19:00,83.5,72.2,29.86,ESE,103,0.0,0.0,69,0.00,,,0.00,VWS V13.01,2013-08-06 02:19:00,
2013-08-05 21:24:00,83.5,72.2,29.86,ESE,103,0.0,0.0,69,0.00,,,0.00,VWS V13.01,2013-08-06 02:24:00,
2013-08-05 21:30:00,83.5,72.2,29.86,ESE,103,0.0,0.0,69,0.00,,,0.00,VWS V13.01,2013-08-06 02:30:00,
2013-08-05 21:35:00,83.3,72.1,29.86,ENE,60,0.0,2.2,69,0.00,,,0.00,VWS V13.01,2013-08-06 02:35:00,
2013-08-05 21:40:00,83.1,71.9,29.86,East,85,0.0,0.0,69,0.00,,,0.00,VWS V13.01,2013-08-06 02:40:00,
2013-08-05 21:46:00,83.1,72.3,29.83,East,85,0.0,0.0,70,0.00,,,0.00,VWS V13.01,2013-08-06 02:46:00,
2013-08-05 21:51:00,82.7,72.0,29.83,NE,46,0.0,0.0,70,0.00,,,0.00,VWS V13.01,2013-08-06 02:51:00,
2013-08-05 21:56:00,82.6,72.2,29.83,NE,40,0.0,0.0,71,0.00,,,0.00,VWS V13.01,2013-08-06 02:56:00,
2013-08-05 22:01:00,82.4,72.4,29.86,NE,40,0.0,0.0,72,0.00,,,0.00,VWS V13.01,2013-08-06 03:01:00,
2013-08-05 22:06:00,81.8,72.8,29.86,NE,44,2.7,2.7,74,0.00,,,0.00,VWS V13.01,2013-08-06 03:06:00,
2013-08-05 22:11:00,81.7,73.0,29.86,NE,40,3.1,3.1,75,0.00,,,0.00,VWS V13.01,2013-08-06 03:11:00,
2013-08-05 22:16:00,81.5,72.8,29.86,NE,45,2.2,2.2,75,0.00,,,0.00,VWS V13.01,2013-08-06 03:16:00,
2013-08-05 22:22:00,81.3,72.6,29.86,NE,41,2.2,2.7,75,0.00,,,0.00,VWS V13.01,2013-08-06 03:22:00,
2013-08-05 22:27:00,81.1,72.8,29.86,NE,50,2.2,2.2,76,0.00,,,0.00,VWS V13.01,2013-08-06 03:27:00,
2013-08-05 22:32:00,81.1,72.8,29.86,NE,47,0.0,2.7,76,0.00,,,0.00,VWS V13.01,2013-08-06 03:32:00,
2013-08-05 22:37:00,80.9,73.1,29.86,NE,52,2.2,2.2,77,0.00,,,0.00,VWS V13.01,2013-08-06 03:37:00,
2013-08-05 22:42:00,80.9,73.1,29.86,NE,45,2.7,2.7,77,0.00,,,0.00,VWS V13.01,2013-08-06 03:42:00,
2013-08-05 22:47:00,80.8,72.9,29.86,NNE,24,0.0,0.0,77,0.00,,,0.00,VWS V13.01,2013-08-06 03:47:00,
2013-08-05 22:52:00,80.6,73.1,29.86,NNE,13,0.0,0.0,78,0.00,,,0.00,VWS V13.01,2013-08-06 03:52:00,
2013-08-05 22:57:00,80.6,73.1,29.86,NNE,24,0.0,4.0,78,0.00,,,0.00,VWS V13.01,2013-08-06 03:57:00,
2013-08-05 23:01:00,80.4,72.9,29.86,NE,39,3.1,3.1,78,0.00,,,0.00,VWS V13.01,2013-08-06 04:01:00,
2013-08-05 23:06:00,80.4,72.9,29.86,NE,34,2.7,3.1,78,0.00,,,0.00,VWS V13.01,2013-08-06 04:06:00,
2013-08-05 23:11:00,80.2,72.7,29.86,NNE,33,3.1,3.6,78,0.00,,,0.00,VWS V13.01,2013-08-06 04:11:00,
2013-08-05 23:16:00,80.2,72.7,29.86,NE,54,2.7,2.7,78,0.00,,,0.00,VWS V13.01,2013-08-06 04:16:00,
2013-08-05 23:21:00,80.0,72.6,29.86,NE,48,2.7,2.7,78,0.00,,,0.00,VWS V13.01,2013-08-06 04:21:00,
2013-08-05 23:26:00,80.0,72.6,29.86,NNE,20,3.1,3.1,78,0.00,,,0.00,VWS V13.01,2013-08-06 04:26:00,
2013-08-05 23:31:00,79.9,72.0,29.86,NE,52,2.7,2.7,77,0.00,,,0.00,VWS V13.01,2013-08-06 04:31:00,
2013-08-05 23:36:00,79.9,72.4,29.86,NNE,19,0.0,2.2,78,0.00,,,0.00,VWS V13.01,2013-08-06 04:36:00,
2013-08-05 23:41:00,79.9,72.4,29.86,North,359,2.7,2.7,78,0.00,,,0.00,VWS V13.01,2013-08-06 04:41:00,
2013-08-05 23:46:00,79.7,72.2,29.86,North,357,0.0,2.2,78,0.00,,,0.00,VWS V13.01,2013-08-06 04:46:00,
2013-08-05 23:51:00,79.5,72.0,29.86,NNE,17,0.0,0.0,78,0.00,,,0.00,VWS V13.01,2013-08-06 04:51:00,
2013-08-05 23:56:00,79.5,72.0,29.86,NE,36,3.1,3.1,78,0.00,,,0.00,VWS V13.01,2013-08-06 04:56:00,